sat.trackr.live / text

‹ back to catalog

STARLINK-2535

NORAD 48295 · 2021-036V

PAYLOAD ACTIVE UNKNOWN

§ Identity

Operator
Country
US
Launch date
2021-04-29
Launch site
AFETR
Launch vehicle
Mass (kg)
RCS (m²)

Purposes: comms

External: N2YO · Heavens-Above · Gunter

§ Orbital elements

Epoch: 2026-05-25T02:33:16.327008Z

Period
94.01 min
Inclination
53.1620°
Eccentricity
0.0001526
Mean motion
15.31696171 rev/d
Perigee alt
469.7 km
Apogee alt
471.8 km
Semi-major
6,848.9 km
B*
2.4466e-5
RAAN
80.1141°
Arg perigee
92.2858°
Mean anomaly
267.8318°
Rev number
28,011

§ Raw data

STARLINK-25351 48295U 21036V   26145.10643897  .00000394  00000+0  24466-4 0  99972 48295  53.1620  80.1141 0001526  92.2858 267.8318 15.31696171280117

JSON: /api/v1/satellites/48295 · /tle

For live sub-satellite position, see the globe view (requires WebGL).

§ Visibility from observer

Set your observer location to see the next 7 days of passes ≥ 10°. The values pass through the URL so the page stays shareable.

No JS? Fill the form by hand. The geolocation button needs JavaScript.